Preview of NWS' New Version of Forecast
This preview is not operational and should not be used for support decisions.

Regional Weather Roundup (RWR)

Issued by National Weather Service (NWS)

                            
000
ASUS43 KBIS 251710
RWRND 

NORTH DAKOTA REGIONAL WEATHER ROUNDUP
NATIONAL WEATHER SERVICE BISMARCK ND
1200 PM CDT SUN AUG 25 2019

NOTE: "FAIR" INDICATES FEW OR NO CLOUDS BELOW 12,000 FEET WITH NO
SIGNIFICANT WEATHER AND/OR OBSTRUCTIONS TO VISIBILITY.


NDZ001>003-009>011-017-251800-
NORTHWEST NORTH DAKOTA
  
CITY           SKY/WX    TMP DP  RH WIND       PRES   REMARKS
WILLISTON      MOSUNNY   78  60  53 NW5       29.72R                  
MINOT          MOSUNNY   75  65  70 W6        29.70R                  
$$
 
NDZ018>021-031>035-040>046-251800-
SOUTHWEST NORTH DAKOTA
  
CITY           SKY/WX    TMP DP  RH WIND       PRES   REMARKS
BISMARCK       MOSUNNY   77  67  71 S10       29.72F                  
DICKINSON      SUNNY     83  52  34 W12G20    29.72F                  
GARRISON         N/A     76  63  64 SW7       29.70F                  
HETTINGER ARPT MOSUNNY   79  56  45 NW9       29.78R                  
$$
 
NDZ004>008-012>016-024-026-027-054-251800-
NORTHEAST NORTH DAKOTA
  
CITY           SKY/WX    TMP DP  RH WIND       PRES   REMARKS
GRAND FORKS    LGT RAIN  65  60  84 S17G26    29.78F                  
DEVILS LAKE    CLOUDY    67  63  87 S15       29.75F                  
$$
 
NDZ022-023-025-028>030-036>039-047>053-251800-
SOUTHEAST NORTH DAKOTA
  
CITY           SKY/WX    TMP DP  RH WIND       PRES   REMARKS
FARGO          CLOUDY    67  61  81 S13G22    29.85S                  
JAMESTOWN      CLOUDY    65  65 100 S17G28    29.77S FOG              
$$